Weather History for Lancaster, CA

Change the Weather History Date:

Saturday, January 18, 2014

  Actual Average Record
Temperature  
Mean Temperature 45 °F 45 °F  
Max Temperature 68 °F 59 °F 75 °F (1959)
Min Temperature 21 °F 31 °F 13 °F (2007)
Degree Days  
Heating Degree Days 20    
Month to date heating degree days 338  
Since 1 July heating degree days 1694  
Cooling Degree Days 0    
Month to date cooling degree days 0  
Year to date cooling degree days 0  
Moisture  
Dew Point 6 °F    
Average Humidity 27    
Maximum Humidity 45    
Minimum Humidity 8    
Precipitation  
Precipitation 0.00 in 0.05 in 1.60 in (1952)
Month to date precipitation 0.00 0.88  
Year to date precipitation 0.00 0.88  
Since 1 July precipitation 1.61 3.35  
Snow  
Snow 0.00 in - T in (1990)
Month to date snowfall 0.0  
Since 1 July snowfall 0.0  
Snow Depth 0.00 in    
Sea Level Pressure  
Sea Level Pressure 30.23 in    
Wind  
Wind Speed 2 mph (WNW)    
Max Wind Speed 8 mph    
Max Gust Speed 9 mph    
Visibility 10 miles    
Events      
T = Trace of Precipitation, MM = Missing Value Source: NWS Daily Summary

Daily Weather History Graph

Daily Weather History Graph

Search for Another Location

Airport:

Trip Planner

Search our weather history database for the weather conditions in past years. The results will help you decide how hot, cold, wet, or windy it might be!

Date:

Astronomy

Jan. 18, 2014 Rise Set
Actual Time 6:58 AM PST 5:08 PM PST
Civil Twilight 6:31 AM PST 5:35 PM PST
Nautical Twilight 6:00 AM PST 6:06 PM PST
Astronomical Twilight 5:30 AM PST 6:36 PM PST
Moon 7:46 PM PST (1/18) 8:08 AM PST (1/18)
Length of Visible Light 11h 03m
Length of Day
10h 09m
Waning Gibbous, 94% of the Moon is Illuminated
Jan 18
Waning Gibbous
Jan 23
Last Quarter
Jan 30
New
Feb 6
First Quarter
Feb 14
Full

Hourly Weather History & Observations

Time (PST) Temp. Windchill Dew Point Humidity Pressure Visibility Wind Dir Wind Speed Gust Speed Precip Events Conditions
12:56 AM 30.0 °F 26.5 °F 5.0 °F 35% 30.22 in 10.0 mi WNW 3.5 mph - N/A   Clear
1:56 AM 28.0 °F - 3.9 °F 36% 30.22 in 10.0 mi Calm Calm - N/A   Clear
2:56 AM 28.9 °F - 3.9 °F 35% 30.22 in 10.0 mi Calm Calm - N/A   Clear
3:56 AM 28.9 °F - 5.0 °F 36% 30.21 in 10.0 mi Calm Calm - N/A   Clear
4:56 AM 30.0 °F - 6.1 °F 36% 30.21 in 10.0 mi Calm Calm - N/A   Clear
5:56 AM 21.9 °F - 3.0 °F 44% 30.25 in 10.0 mi Calm Calm - N/A   Clear
6:56 AM 21.9 °F - 3.0 °F 44% 30.28 in 10.0 mi Calm Calm - N/A   Clear
7:56 AM 28.0 °F - 7.0 °F 41% 30.29 in 5.0 mi Calm Calm - N/A   Haze
8:56 AM 37.0 °F - 8.1 °F 30% 30.30 in 10.0 mi Calm Calm - N/A   Clear
9:56 AM 45.0 °F - 8.1 °F 22% 30.31 in 10.0 mi Calm Calm - N/A   Clear
10:56 AM 53.1 °F - 9.0 °F 17% 30.28 in 10.0 mi Calm Calm - N/A   Clear
11:56 AM 57.9 °F - 6.1 °F 13% 30.25 in 10.0 mi Calm Calm - N/A   Clear
12:56 PM 63.0 °F - 6.1 °F 11% 30.20 in 10.0 mi ESE 3.5 mph - N/A   Clear
1:56 PM 64.9 °F - 5.0 °F 9% 30.17 in 10.0 mi Variable 3.5 mph - N/A   Clear
2:56 PM 68.0 °F - 3.9 °F 8% 30.15 in 10.0 mi NE 3.5 mph - N/A   Clear
3:56 PM 66.9 °F - 3.9 °F 8% 30.16 in 10.0 mi ENE 5.8 mph - N/A   Clear
4:56 PM 63.0 °F - 7.0 °F 11% 30.17 in 10.0 mi Calm Calm - N/A   Clear
5:56 PM 48.9 °F - 8.1 °F 19% 30.21 in 10.0 mi WSW 4.6 mph - N/A   Clear
6:56 PM 42.1 °F 38.4 °F 7.0 °F 24% 30.23 in 10.0 mi West 5.8 mph - N/A   Clear
7:56 PM 39.9 °F 34.5 °F 6.1 °F 25% 30.22 in 10.0 mi West 8.1 mph - N/A   Clear
8:56 PM 39.9 °F - 6.1 °F 25% 30.22 in 10.0 mi Calm Calm - N/A   Clear
9:56 PM 36.0 °F 31.1 °F 5.0 °F 27% 30.22 in 10.0 mi WNW 5.8 mph - N/A   Clear
10:56 PM 35.1 °F 31.0 °F 6.1 °F 30% 30.22 in 10.0 mi West 4.6 mph - N/A   Clear
11:56 PM 34.0 °F 29.8 °F 6.1 °F 31% 30.21 in 10.0 mi West 4.6 mph - N/A   Clear